User: anonymous   Login
Location: Caltech
(34.1382°N, 118.1253°W)
Time: 19:38:48
(UTC-07:00)
Language:

Cosmos 2322 - Orbit

View from above orbital plane
View from above orbital plane
View from above satellite
View from above satellite

Ground track
Ground track

The orbit data is extracted from the following two-line orbital elements,

1 23704U 95058A   15208.85513398 -.00000219  00000-0 -91590-4 0  9993
2 23704 070.9836 050.6520 0007501 051.8307 038.5545 14.13315386 18303
Epoch (UTC): 27 July 2015 20:31:23
Eccentricity: 0.0007501
inclination: 70.9836°
perigee height: 842 km
apogee height: 853 km
right ascension of ascending node: 50.6520°
argument of perigee: 51.8307°
revolutions per day: 14.13315386
mean anomaly at epoch: 38.5545°
orbit number at epoch: 1830

The dashed part of the orbit path shows where the satellite is in the earth's shadow,  

DLR